Regional Weather Roundup
Issued by NWS

Home | Current Version | Previous Version | Graphics & Text | Print | Product List | Glossary Off
Versions: 1 2 3 4 5 6 7 8 9 10 11 12 13 14 15 16 17 18 19 20 21 22 23 24 25 26 27 28 29 30 31 32 33 34 35 36 37 38 39 40 41 42 43 44 45 46 47 48 49 50

000
ASUS43 KDTX 072310
RWRMI
MICHIGAN HOURLY REGIONAL WEATHER ROUNDUP
NATIONAL WEATHER SERVICE DETROIT/PONTIAC MI
700 PM EDT TUE JUL 07 2015

NOTE: "FAIR" INDICATES FEW OR NO CLOUDS BELOW 12,000 FEET WITH NO
SIGNIFICANT WEATHER AND/OR OBSTRUCTION TO VISIBILITY.

MIZ047>049-052>055-059>063-066>070-074>076-081>083-080000-
SOUTHEAST LOWER MICHIGAN

CITY           SKY/WX    TMP DP  RH WIND       PRES   REMARKS
ADRIAN         LGT RAIN  66  62  87 N7        29.96R
ALMA           PTSUNNY   66  51  58 N7        29.99F
ANN ARBOR      CLOUDY    66  59  78 N10G20    29.96R
BAD AXE        CLOUDY    62  55  80 N9        29.97S
CARO           CLOUDY    64  59  85 N5        29.97S
DETROIT CITY   CLOUDY    67  61  81 N8        29.94R
DETROIT        CLOUDY    68  60  75 NW13      29.94S
FLINT          CLOUDY    66  57  72 N10       29.98R
GROSSE ILE     CLOUDY    66  63  88 NW7       29.92S
HILLSDALE      CLOUDY    68  63  84 N9        29.97R
HOWELL         CLOUDY    64  56  77 NW8       29.98S

CITY           SKY/WX    TMP DP  RH WIND       PRES   REMARKS
JACKSON        CLOUDY    64  56  75 N9        29.98R
LAMBERTVILLE   CLOUDY    68  62  82 N7        29.94S
LANSING        CLOUDY    65  53  65 N6        29.99S
LAPEER         DRIZZLE   61  60  96 N8        29.98R
MASON          CLOUDY    62  55  76 N5        29.99R
MONROE         CLOUDY    66  62  85 N10       29.93R
MT. CLEMENS    LGT RAIN  64  63  94 NE9       29.93R FOG
PONTIAC        DRIZZLE   63  60  90 N13       29.96R FOG
PORT HOPE        N/A     62  56  80 VRB3      29.96R
PORT HURON     CLOUDY    61  59  94 N12       29.96R
TRI CITIES     CLOUDY    67  53  61 N9        29.99S
MIDLAND        PTSUNNY   65  52  60 N3        29.99R
TROY           CLOUDY    67  60  79 N12G18    29.97R
SAGINAW HB     CLOUDY    64  52  63 NW9       29.98R
$$
MIZ043>046-050>051-056>058-064>065-071>073-077>080-080000-
SOUTHWEST LOWER MICHIGAN

CITY           SKY/WX    TMP DP  RH WIND       PRES   REMARKS
BATTLE CREEK   PTSUNNY   70  57  63 NE9       29.98S
BENTON HARBOR  SUNNY     62  49  62 N8G22     30.02S
BIG RAPIDS     SUNNY     65  44  47 N10G17    30.01R
COLDWATER      PTSUNNY   69  58  67 N12       29.96S
FREMONT        FAIR      65  48  54 NW12      30.02R
HOLLAND        SUNNY     65  48  54 NW13G20   30.02R
GRAND RAPIDS   PTSUNNY   70  52  52 N12       29.99S
IONIA          PTSUNNY   68  54  59 N6        29.98F
KALAMAZOO      MOSUNNY   72  54  53 NW14      29.97S
LUDINGTON      SUNNY     62  47  58 N13       30.06S
MARSHALL       CLOUDY    66  57  71 N6        29.97S
MOUNT PLEASANT SUNNY     65  49  56 N7        29.99F
MUSKEGON       MOSUNNY   68  48  48 NW15G21   30.02S
SOUTH HAVEN    SUNNY     61  49  63 N14G26    30.02S
$$
MIZ016>042-080000-
NORTHERN LOWER MICHIGAN

CITY           SKY/WX    TMP DP  RH WIND       PRES   REMARKS
ALPENA         SUNNY     65  48  54 N17       29.99R
BEAVER ISLAND  SUNNY     63  48  58 N10       30.04S
BELLAIRE       PTSUNNY   62  47  59 NW6       30.03S
CADILLAC       MOSUNNY   61  47  61 N8        30.03S
CHARLEVOIX     SUNNY     61  49  64 N8        30.07R
FRANKFORT      SUNNY     64  44  47 NE9       30.05S
GAYLORD        PTSUNNY   60  48  64 NW10G16   30.02R
GRAYLING       PTSUNNY   63  48  57 N10       30.02S
HARBOR SPRINGS MOSUNNY   62  48  60 N7        30.02S
HOUGHTON LAKE  PTSUNNY   64  48  56 N12       30.01R
MANISTEE       SUNNY    N/A N/A N/A N12G17    30.05S
OSCODA         PTSUNNY   66  51  58 N7        29.96S
PELLSTON       SUNNY     64  47  53 NW12      30.02R
ROGERS CITY    CLOUDY    63  49  61 NW10G21   30.00S
TRAVERSE CITY  MOSUNNY   64  47  53 NW15      30.02S
$$
MIZ007>008-015-080000-
EASTERN UPPER MICHIGAN

CITY           SKY/WX    TMP DP  RH WIND       PRES   REMARKS
KINROSS        SUNNY     61  48  63 NW20      30.01R
MACKINAC ISLAN SUNNY     62  49  63 N10G17    30.01S
NEWBERRY       SUNNY     61  48  62 N8        30.04S
S. S. MARIE    MOSUNNY   58  45  62 NW14G21   30.01S
MUNISING         N/A     61  47  59 NW12      30.07S
$$
MIZ004>006-011>014-085-080000-
CENTRAL UPPER MICHIGAN

CITY           SKY/WX    TMP DP  RH WIND       PRES   REMARKS
MANISTIQUE     SUNNY     63  44  49 NW15G21   30.04S
ESCANABA       SUNNY     66  43  42 N12G17    30.05S
MENOMINEE      SUNNY     66  46  48 N7        30.05S
SAWYER-GWINN   SUNNY     64  41  42 NE12      30.09R
$$
MIZ001>003-009>011-084-080000-
WESTERN UPPER MICHIGAN

CITY           SKY/WX    TMP DP  RH WIND       PRES   REMARKS
IRON MOUNTAIN  MOSUNNY   67  45  45 N10       30.07S
HOUGHTON       SUNNY     65  44  46 W8        30.08S
COPPER HARBOR    N/A     60  48  64 N7        30.06S
IRONWOOD       SUNNY     64  39  39 N3        30.09F
$$

ABBREVIATIONS USED IN REMARKS
   TC - TEMPERATURE IN CELSIUS
  WCI - WIND CHILL INDEX
   HX - HEAT INDEX
  VSB - VISIBILITY



USA.gov is the U.S. government's official web portal to all federal, state and local government web resources and services.